User: anonymous   Login
Location: Black Rock Desert
(40.7548°N, 119.2364°W)
Time: 22:41:49
(UTC-08:00)
Language:

Cosmos 1340 Rocket - Orbit

View from above orbital plane
View from above orbital plane
View from above satellite
View from above satellite

Ground track
Ground track

The orbit data is extracted from the following two-line orbital elements,

1 13068U 82013B   14327.50880373  .00002235  00000-0  15569-3 0  5596
2 13068 081.2048 210.6559 0023178 163.1351 197.0647 15.04852530782499
Epoch (UTC): 23 November 2014 12:12:40
Eccentricity: 0.0023178
inclination: 81.2048°
perigee height: 536 km
apogee height: 568 km
right ascension of ascending node: 210.6559°
argument of perigee: 163.1351°
revolutions per day: 15.04852530
mean anomaly at epoch: 197.0647°
orbit number at epoch: 78249

The dashed part of the orbit path shows where the satellite is in the earth's shadow,  

DLR